Location: downtown San Diego
(32.7310°N, 117.1990°W)
Time: 16:57:16
(UTC-08:00)

Helios 1B rocket - Pass Details

Date: 12 July 2018
Orbit: 577 x 584 km, 98.2° (Epoch: 16 December)

Event Time Altitude Azimuth Distance (km) Brightness Sun altitude
Rises 22:35:05 0° 11° (N) 2,793 6.5 -26.1°
Reaches altitude 10° 22:37:15 10° 10° (N) 1,891 5.6 -26.3°
Enters shadow 22:40:13 47° 4° (N) 767 3.2 -26.7°
